Showing default

YAOGAN-32 A, 43642

Orbit data source: Space-Track

YAOGAN-32 A, 43642 is a payload satellite owned by PLA SSF (CN) in SSO that was launched on Tue, 09 Oct 2018 UTC via a CHANG ZHENG 2C/YZ-1S launch vehicle from the Jiuquan Satellite Launch Center, China (JSC). Payload-class satellites include a variety of spacecraft equipped with specific instruments for various scientific and technological missions. These include communications satellites like Starlink; space stations such as the ISS; scientific satellites like the Hubble; Earth observation satellites from companies like Planet Labs, Umbra, and HawkEye 360; GPS; miniature CubeSats for education and research; and military/defense satellites.

Loading next visibility...
Identifier
43642, 2018-077A
Orbit
SSO
Country
Flag of CNCN / PRC
Related business
Manufacturer
SECM?
Mission
Operational Defense Sigint
Bus & Motor
Unknown
Mass
~500 kg wet, ~500 kg dry
Launch date (UTC)
2018-10-09 (7 years ago)
Launch vehicle
CHANG ZHENG 2C/YZ-1S
Launch site
Jiuquan Satellite Launch Center, China (JSC)
Object type
Payload
Rocket body
Debris
Shape & HBR
Box + 2 Pan, 0.5 m
Radar Cross Section
0.446 m², Large (>1 m²)

Expand to show TLE details & history
Last TLE update: 9 hours ago

TLE from 9 hours ago
0 YAOGAN-32 A
1 43642U 18077A   25309.96078792  .00000934  00000-0  19160-3 0  9995
2 43642  97.9281 338.2566 0001482  98.9723 261.1647 14.62846241377207
Epoch: 2025-11-05T23:03Z
TLE epoch observation values (Epoch: 2025-11-05T23:03:32.076Z)
Latitude
-0.00004°
Longitude
-53.053°
Altitude
687.157 km
Speed
7.513 km/s
True Right ascension
22h 33m 01s
True Declination
0° 00' 00"
Sunlit
Object was in full shadow at epoch
Visualization orbit readout
Latitude
Unknown
Longitude
Unknown
Altitude
Unknown
Speed
Unknown
Apparent Right ascension
Unknown
Apparent Declination
Unknown
Sunlit
N/A
Visualization observer readout
Local Sidereal Time
04:29:39
Azimuth
Unknown
Elevation
Unknown
Doppler factor
Unknown
Orbital elements
Apogee altitude
682.11 km
Perigee altitude
680.018 km
Semi-major axis
7,059.201 km
Eccentricity
0.00015
Inclination
97.9281°
RAAN
338.2566°
Arg. of periapsis
98.9723°
True anomaly
261.14792°
Mean anomaly
261.1647°
Eccentric anomaly
261.15631°
Mean motion
3.6594 °/min
Orbital period
98.38 mins
BSTAR
0.0001916
Loading maneuver chart data...
Computing Atmospheric mass density...
Loading historical data...
Loading historical data...
Loading historical data...
Loading historical data...
Loading historical data...
Loading historical data...
Loading historical data...
Other satellites on launch #77 in the year 2018 (2018-10-09 UTC)

Documentation

Showing up to 5 results
|